Weather in Bolshaya Chernigovka

Russia / Samara Oblast     52°05′42″N   50°52′02″E
temp.,
°C
wind,
m/s
gust,
m/s
humid.,
%
clouds,
%
prec.,
mm/h
press.,
hPa
HPBL,
m
27 february, sat
sat2701:00−8sse111794100 3.6 1006438
04:00−2s81297100 7.3 1002292
07:00+1w5999100 0.4 1000287
10:00+1w611100100 0.4 1001410
13:00+1wsw610100100 0.1 1001478
16:00+1wsw510100100 0.1 1001527
19:000wsw51098100 0.1 1000474
22:000wsw5998100 0.3 999423
28 february, sun
sun2801:000wsw5998100 1.4 999465
04:00−8nw6995100 2.1 1000282
07:00−13nw71193100 0.3 1002367
10:00−14nw71193100 0.4 1004373
13:00−14nw61093100 0.0 1007412
16:00−13nw61092100 0.1 1009509
19:00−15nw41096100 0.1 1011312
22:00−18nw479696 0.1 1014121
1 march, mon
mon101:00−18nw469781 0.0 1015110
04:00−18wnw479782 0.1 1016143
07:00−17nw489782 0.1 1018208
10:00−18nnw479583 0.1 1020218
13:00−16nw469365 0.0 1021276
16:00−16nw469470 0.0 1022272
19:00−19wnw349820 0.0 102335
22:00−20wnw339922 0.0 102423
2 march, tue
tue201:00−20wsw339929 0.0 102327
04:00−20sw4510025 0.0 102269
07:00−18ssw599885 0.0 1020152
10:00−14ssw7119691 0.0 1017263
13:00−9ssw81394100 0.1 1014417
16:00−6ssw91594100 0.6 1010723
19:00−3sw81494100 0.8 1006680
22:00−3sw71295100 1.6 1004526
3 march, wed
wed301:00−2wsw599796 0.7 1003302
04:00−3wnw599598 0.8 1003287
07:00−8w489681 0.0 1003143
10:00−6w5109581 0.1 1004298
13:00−3wnw6109399 0.2 1004662
16:00−2nw71192100 0.6 1005809
19:00−4nw51195100 0.2 1006540
22:00−6nw6119399 0.4 1008357